Location: Engordany
(42.5116°N, 1.5414°E)
Time: 11:10:18
(UTC+00:00)

Daily predictions for brighter satellites

Satellite Brightness Start Highest point End
(mag) Time Altitude Azimuth Time Altitude Azimuth Time Altitude Azimuth
Cosmos 44 4.2 19:04:11 10° S 19:08:23 28° ESE 19:12:48 10° NE
NOSS 2-1 (C) 4.5 19:06:28 10° N 19:09:25 26° NE 19:13:03 10° ESE
SL-16 R/B 3.2 19:10:13 10° SSE 19:14:43 25° ESE 19:19:15 10° NE
Cosmos 1378 Rocket 4.5 19:12:53 10° NNE 19:16:45 30° ENE 19:20:34 10° SE
Okean O Rocket 3.7 19:17:27 10° ENE 19:18:38 11° ENE 19:19:50 10° NE
CZ-4 R/B 1.8 19:19:51 10° SE 19:23:18 37° ENE 19:26:45 10° N
SPOT 5 2.6 19:22:25 10° SSE 19:26:56 70° ENE 19:31:17 10° N
NOSS 3-4 (A) 4.2 19:22:47 10° WSW 19:27:53 50° NW 19:33:28 10° NNE
NOSS 3-4 (C) 4.2 19:23:16 10° SW 19:28:24 51° NW 19:34:02 10° NNE
Cosmos 1656 Rocket 4.2 19:27:26 10° NNW 19:32:38 42° ENE 19:37:23 12° SE
Cosmos 1025 Rocket 4.1 19:29:52 10° NNE 19:33:28 26° ENE 19:36:27 13° SE
Helios 1A Rocket 2.6 19:31:34 10° NNE 19:34:39 43° E 19:37:41 10° S
Cosmos 1733 Rocket 3.0 19:30:23 10° S 19:34:43 73° E 19:39:07 10° NNE
CZ-4B R/B 3.7 19:31:10 10° SSE 19:34:51 63° ENE 19:38:41 10° N
Terra 2.6 19:32:09 11° SE 19:36:14 34° ENE 19:40:27 10° N
SJ-6B 4.1 19:33:23 10° SSW 19:36:48 38° W 19:40:12 10° NNW
Cosmos 2242 Rocket 3.6 19:33:18 10° N 19:37:44 67° E 19:42:06 10° SSE
BREEZE-M DEB (TANK) 3.5 19:36:09 10° NW 19:38:33 31° NNE 19:43:09 10° E
IRAS Rocket 4.2 19:33:55 10° SSE 19:39:22 76° ENE 19:44:51 10° NNW
Resurs 01 Rocket 3.9 19:37:10 10° SSW 19:40:47 25° W 19:44:25 10° NW
Cosmos 1821 Rocket 4.0 19:35:00 10° S 19:41:13 73° E 19:47:34 10° NNE
Cosmos 2237 Rocket 3.1 19:36:49 10° SW 19:42:23 55° WNW 19:47:59 10° NNE
Cosmos 2218 Rocket 4.2 19:41:09 10° SSW 19:47:16 74° W 19:53:27 10° N
Cosmos 2150 Rocket 4.5 19:43:08 10° SSE 19:47:48 37° ESE 19:52:33 10° NE
CSL-04 Rocket 3.8 19:42:29 10° SSE 19:48:02 82° WSW 19:53:37 10° NNW
Meteor 2-15 Rocket 4.4 19:44:35 10° S 19:50:38 79° E 19:56:45 10° N
BREEZE-M DEB (TANK) 4.2 19:50:06 10° WNW 19:52:07 23° N 19:55:19 10° ENE
Cosmos 1346 Rocket 3.1 19:49:52 10° N 19:53:16 38° ENE 19:55:10 21° SE
SL-4 R/B 2.8 19:52:57 10° SSW 19:56:09 26° SE 19:57:35 21° E
Cosmos 1400 Rocket 2.9 19:52:43 10° SSW 19:56:17 67° W 19:59:54 10° N
BREEZE-M DEB (TANK) 3.7 19:52:58 10° SSW 19:56:31 43° ESE 20:06:48 10° NE
OAO 3 Rocket 4.2 19:53:02 10° WSW 19:57:04 30° S 19:59:27 19° SE
Cosmos 1812 1.3 19:56:46 25° SSW 19:57:29 52° W 19:59:07 10° N
Meteor 1-31 Rocket 2.9 19:56:00 10° S 19:59:28 63° W 20:02:58 10° NNW
Cosmos 1602 4.4 19:58:33 10° NNE 19:59:37 17° NE 19:59:37 17° NE
ASTEX 1 4.1 19:59:47 20° SE 20:02:29 35° ENE 20:06:57 10° NNE
Cosmos 1943 Rocket 4.1 19:57:52 10° NW 20:02:31 27° WSW 20:07:08 10° SSW
Gbstr 26 Del rocket 4.0 19:58:16 10° SSW 20:03:09 33° SE 20:06:31 14° ENE
USA 59 Rocket 0.1 20:00:48 10° NW 20:04:24 68° SW 20:07:46 18° SSE
Feng Yun 1-1 Rocket 4.2 19:59:57 10° SSE 20:05:27 89° ENE 20:10:54 10° NNW
Cosmos 1869 4.0 20:06:01 26° E 20:06:14 26° E 20:09:14 10° NNE
ADEOS 3.5 20:06:32 17° SSE 20:10:30 69° ENE 20:15:42 10° N
Cosmos 2369 Rocket 2.8 20:06:56 10° NNW 20:12:13 41° ENE 20:15:00 24° ESE
USA 186 3.3 20:14:08 14° NE 20:14:08 14° NE 20:14:51 10° NNE
CBERS 1 LM4 rocket 4.3 20:10:01 16° SSE 20:13:46 88° ENE 20:18:34 10° NNW
MOS 1 4.3 20:10:25 12° SSE 20:15:38 86° WSW 20:21:20 10° NNW
SL-08 R/B 3.3 20:11:09 10° NNE 20:16:02 64° ESE 20:20:52 10° S
Cosmos 2285 Rocket 3.9 20:12:22 10° S 20:18:40 68° ESE 20:24:57 10° NNE
Cosmos 2221 Rocket 3.7 20:16:27 10° N 20:20:48 57° E 20:22:40 32° SE
USA 234 3.2 20:14:42 10° NE 20:21:17 81° SE 20:27:51 10° SW
YAOGAN 11 4.3 20:17:08 10° NNE 20:21:17 47° E 20:23:06 29° SSE
SKYMED 3 4.3 20:20:03 10° N 20:23:57 83° WNW 20:27:51 10° SSW
Cosmos 405 Rocket 4.1 20:23:08 10° NNE 20:24:26 17° NE 20:24:26 17° NE
Cosmos 1943 3.7 20:23:24 26° SSE 20:25:36 36° ESE 20:30:43 10° NE
Molniya-1 3.1 20:24:32 10° SW 20:27:00 73° NW 20:31:38 10° NE
CZ-4B R/B 4.2 20:27:34 19° ENE 20:27:34 19° ENE 20:29:41 10° NNE
CZ-4B R/B 3.3 20:23:41 17° S 20:28:06 80° WSW 20:33:48 10° NNW
Cosmos 2278 Rocket 4.5 20:25:23 10° NW 20:29:24 20° W 20:33:25 10° SW
HBTSS-SV1 4.4 20:25:59 10° W 20:30:22 64° S 20:31:41 42° ESE
SL-8 R/B 4.3 20:26:49 10° W 20:31:27 55° NNW 20:36:05 10° ENE
OAO 2 Rocket 4.0 20:29:15 10° WSW 20:33:54 35° S 20:34:49 32° SSE
SL-08 R/B 4.5 20:28:17 10° N 20:34:30 70° E 20:38:00 28° SSE
Cosmos 1975 Rocket 4.2 20:32:10 10° NNE 20:35:56 27° ENE 20:35:59 27° ENE
ERS-1 Rocket 3.6 20:33:53 15° S 20:37:56 53° W 20:42:51 10° NNW
Cosmos 1674 Rocket 4.5 20:38:10 10° NNW 20:42:19 46° W 20:45:17 18° SSW
Cosmos 2263 4.4 20:37:52 10° NNW 20:43:26 55° ENE 20:45:15 39° ESE
Okean-O 2.5 20:44:32 48° SSE 20:45:42 81° ENE 20:50:05 10° N
Cosmos 2292 Rocket 3.9 20:42:01 10° NNW 20:45:55 48° W 20:47:05 33° SW
Cosmos 2298 Rocket 4.3 20:42:23 10° SSW 20:47:40 70° WNW 20:52:59 10° NNE
Cosmos 1908 Rocket 4.0 20:45:39 16° SSW 20:49:03 59° W 20:53:19 10° N
Okean O Rocket 1.6 20:53:05 49° S 20:54:11 78° WSW 20:58:31 10° NNW
CZ-4B R/B 3.7 20:55:25 44° E 20:55:51 45° ENE 21:00:22 10° N
BREEZE-M DEB (TANK) 4.4 20:51:41 10° WNW 20:56:14 29° SW 20:56:25 29° SW
CZ-4 R/B 4.0 20:55:21 10° SW 20:57:28 14° W 20:59:34 10° WNW
Ariane Rocket 3.5 20:57:13 40° E 20:57:44 42° ENE 21:02:27 10° N
SL-16 R/B 3.1 20:53:01 10° SW 20:58:28 48° WNW 21:03:58 10° NNE
Cosmos 1782 Rocket 3.3 20:58:38 66° S 20:59:13 86° E 21:03:32 10° N
Cosmos 1934 Rocket 4.1 20:54:45 15° SSW 21:00:05 78° W 21:06:18 10° N
Geosat 4.4 20:57:22 10° NNE 21:02:19 64° WNW 21:07:15 10° SW
Spot 2 Rocket 3.7 21:03:20 38° SSW 21:05:07 63° WSW 21:10:07 10° NNW
USA 245 3.8 21:05:18 63° SE 21:05:58 74° ENE 21:11:24 10° N
Cosmos 1269 Rocket 4.1 21:04:35 10° NNW 21:09:48 60° ENE 21:10:20 56° E
ATLAS 5 CENTAUR R/B 3.7 21:07:43 10° N 21:10:26 17° NE 21:11:03 16° NE
Cosmos 1140 Rocket 3.3 21:07:15 10° NNW 21:12:22 68° ENE 21:12:46 65° E
Terra 3.6 21:10:46 14° SW 21:13:46 26° W 21:17:41 10° NW
NOSS 3-1 (C) 4.0 21:12:35 10° NW 21:19:55 86° SW 21:23:02 45° SSE
Cosmos 1447 Rocket 4.4 21:20:47 10° N 21:27:00 66° E 21:27:42 61° ESE
Cosmos 2058 3.9 21:24:57 10° N 21:27:31 39° N 21:27:31 39° N
Cosmos 407 Rocket 4.0 21:24:22 10° N 21:28:57 44° NE 21:28:57 44° NE
SL-4 R/B 3.8 21:29:34 10° WSW 21:31:14 24° W 21:31:14 24° W
Cosmos 371 Rocket 4.3 21:29:24 10° N 21:33:16 36° NE 21:33:16 36° NE
COSMOS 2455 3.0 21:34:59 10° NNW 21:40:57 59° ENE 21:41:17 58° ENE
SJ 16-02 3.0 21:38:09 10° N 21:40:32 24° NNE 21:40:32 24° NNE
Cosmos 1315 Rocket 4.3 21:43:33 31° WNW 21:43:33 31° WNW 21:46:32 10° N
SPOT 3 Rocket 4.0 21:48:49 51° WSW 21:49:05 51° W 21:54:08 10° NNW
Gbstr 26 Del rocket 3.9 21:44:28 10° WSW 21:48:40 49° WNW 21:48:40 49° WNW
Cosmos 1605 Rocket 4.4 21:47:33 37° SW 21:49:42 56° W 21:55:44 10° N
Lacrosse 5 rocket 3.8 21:52:06 10° NNW 21:52:47 13° N 21:52:47 13° N
Cosmos 2369 Rocket 3.5 21:51:16 10° NW 21:56:00 29° WSW 21:56:46 28° WSW
SeaSat 1 4.2 21:56:42 21° NE 21:56:42 21° NE 22:00:14 10° N
Cosmos 2173 Rocket 4.1 22:03:21 59° NE 22:03:21 59° NE 22:08:36 10° NNE
USA 234 4.5 21:57:58 10° NE 22:03:56 39° NNW 22:09:55 10° W
Cosmos 1603 3.8 22:07:59 71° NNW 22:07:59 71° NNW 22:13:12 10° NNE
Cosmos 921 Rocket 4.5 22:03:50 10° NNW 22:06:41 34° NW 22:06:41 34° NW
Meteor 2-3 Rocket 4.2 22:09:34 10° N 22:14:03 52° NNE 22:14:03 52° NNE
NOSS 3-1 (A) 4.0 22:12:18 10° NW 22:19:45 80° WSW 22:20:42 71° S
Cosmos 2100 Rocket 4.0 22:26:44 74° NNW 22:26:44 74° NNW 22:32:26 10° N
Cosmos 1656 4.4 22:40:27 10° NNW 22:44:20 48° NNW 22:44:20 48° NNW
ATLAS 3B R/B 4.3 22:45:44 10° NNW 22:52:36 32° NE 22:55:41 24° ENE
ATLAS 5 CENTAUR R/B 3.7 22:48:27 10° NW 22:50:11 25° NW 22:50:11 25° NW
Cosmos 1833 Rocket 4.1 23:01:17 31° NE 23:01:17 31° NE 23:04:09 10° NNE
Cosmos 1725 Rocket 4.5 23:08:52 57° NW 23:08:52 57° NW 23:14:15 10° N
Cosmos 2233 Rocket 4.5 23:18:32 57° NNW 23:18:32 57° NNW 23:23:30 10° N
SJ 16-02 4.1 23:16:26 10° NW 23:17:01 13° NW 23:17:01 13° NW
ATLAS 2AS CENTAUR R/B 3.0 23:25:29 64° NNE 23:25:29 64° NNE 23:31:12 10° NE
CZ-2C R/B 4.1 23:29:07 32° NE 23:29:07 32° NE 23:32:43 10° N
SeaSat 1 4.3 23:36:18 25° NW 23:36:18 25° NW 23:38:25 10° NNW
ACS3 Solar Sail 3.7 23:41:50 10° NE 23:44:47 18° ENE 23:44:47 18° ENE
Cosmos 1697 Rocket 3.9 23:43:47 10° NNW 23:47:06 37° NNW 23:47:06 37° NNW
